sat.trackr.live / text

‹ back to catalog

STARLINK-6240

NORAD 57084 · 2023-088AN

PAYLOAD ACTIVE UNKNOWN

§ Identity

Operator
Country
US
Launch date
2023-06-22
Launch site
AFWTR
Launch vehicle
Mass (kg)
RCS (m²)

Purposes: comms

External: N2YO · Heavens-Above · Gunter

§ Orbital elements

Epoch: 2026-05-25T01:37:24.407040Z

Period
94.27 min
Inclination
43.0053°
Eccentricity
0.0001711
Mean motion
15.27596622 rev/d
Perigee alt
481.8 km
Apogee alt
484.2 km
Semi-major
6,861.1 km
B*
-1.1983e-4
RAAN
24.5920°
Arg perigee
262.8891°
Mean anomaly
97.1766°
Rev number
16,218

§ Raw data

STARLINK-62401 57084U 23088AN  26145.06764360 -.00003560  00000+0 -11983-3 0  99952 57084  43.0053  24.5920 0001711 262.8891  97.1766 15.27596622162188

JSON: /api/v1/satellites/57084 · /tle

For live sub-satellite position, see the globe view (requires WebGL).

§ Visibility from observer

Set your observer location to see the next 7 days of passes ≥ 10°. The values pass through the URL so the page stays shareable.

No JS? Fill the form by hand. The geolocation button needs JavaScript.